OPTICUBE 04

导读 | 豆包AI

OPTICUBE 04是美国于2016年11月11日发射的3U立方星,核心任务是验证新型空间光学通信技术。该卫星搭载可展开式光学接收孔径(DORA)技术,采用广角光电二极管阵列替代传统望远镜,仅需10度指向精度即可实现数千公里距离1Gbps高速传输,突破了小型卫星数据传输瓶颈,为未来航天器集群组网、地月空间通信奠定技术基础。

基本信息
目录编号:
41851
目录名称:
OPTICUBE 04
国际标识:
2016-067D
轨道中心:
EARTH
卫星名称:
OPTICUBE 04
卫星全名:
--
卫星状态:
在轨 (已飞行3457 天)
发射日期:
2016-11-11 UTC
国别 :
美国 (US)
星等 :
--
轨道信息
数据来源 国际轨道数据
星历时间: 2026-04-30T21:14:56+0800
7小时前
查看轨道信息
半长轴: 6916km
偏心率: 0.0014235
轨道倾角: 98.075°
近地点辐角 279.816°
升交点赤经 330.344°
平近点角 80.146°
近地点: 528.018km
远地点: 547.708km
周期: 95.399分钟
每日圈数: 15.094554
详细信息
使用方式:
暂无
2D轨道图
3D轨道图
轨道高度分析图
轨道倾角分析图
轨道综合分析图
查看轨道综合分析图